sat.trackr.live / text

‹ back to catalog

STARLINK-33596

NORAD 62758 · 2025-015A

PAYLOAD ACTIVE UNKNOWN

§ Identity

Operator
Country
US
Launch date
2025-01-21
Launch site
AFWTR
Launch vehicle
Mass (kg)
RCS (m²)

Purposes: comms

External: N2YO · Heavens-Above · Gunter

§ Orbital elements

Epoch: 2026-09-21T20:31:42.512160Z

Period
94.01 min
Inclination
53.1590°
Eccentricity
0.0001454
Mean motion
15.31710083 rev/d
Perigee alt
469.7 km
Apogee alt
471.7 km
Semi-major
6,848.8 km
B*
4.0456e-4
RAAN
129.9648°
Arg perigee
86.9935°
Mean anomaly
273.1233°
Rev number
9,446

§ Raw data

STARLINK-335961 62758U 25015A   26264.85535315  .00012213  00000+0  40456-3 0  99962 62758  53.1590 129.9648 0001454  86.9935 273.1233 15.31710083 94469

JSON: /api/v1/satellites/62758 · /tle

For live sub-satellite position, see the globe view (requires WebGL).

§ Visibility from observer

Set your observer location to see the next 7 days of passes ≥ 10°. The values pass through the URL so the page stays shareable.

No JS? Fill the form by hand. The geolocation button needs JavaScript.